Lapse_Rate
3.7 3.3 3.5 3.7 4.5 4.8 4.8 4.5 4.0 3.7 3.7 3.6 3.4 2.9 2.9 3.1 2.8 1.2 0.6 -0.9 0.8 -1.1 2.2 3.3 3.5 2.8 3.1 2.9 6.5 4.9 5.5 4.6 6.4 6.5 6.5 6.5 6.5 6.5 6.5 6.5 6.5 6.5 6.5 6.5 6.5 6.5 6.5 6.2 6.2 6.5 6.4 6.5 6.8 7.1
4.6 4.0 3.3 3.1 3.9 4.5 4.8 4.8 4.5 4.3 4.3 4.2 3.8 3.7 3.5 3.5 3.5 3.0 2.2 0.1 -0.6 1.0 3.1 1.4 3.0 3.6 4.5 3.4 2.3 2.2 4.9 3.9 3.8 6.5 6.5 6.5 6.5 6.5 6.5 6.5 6.5 6.5 6.5 6.5 6.5 6.5 6.0 5.8 6.3 6.4 6.3 6.3 6.5 6.4
4.5 4.1 4.1 3.4 3.4 4.2 4.5 5.0 4.9 4.7 4.7 4.6 4.3 4.0 3.9 3.9 3.5 3.0 1.4 0.1 -0.0 -1.3 1.8 3.2 4.3 3.4 2.8 3.4 3.0 3.5 1.2 2.5 2.2 2.2 4.7 6.4 6.5 6.5 6.5 6.5 6.5 6.5 6.2 6.5 6.5 6.5 6.6 5.4 6.7 5.6 6.2 5.7 5.6 5.9
4.6 4.0 3.7 3.8 2.8 3.6 4.2 4.6 5.0 5.0 4.9 4.8 4.7 4.3 4.2 4.1 3.7 3.7 2.2 0.4 0.6 -0.4 0.9 3.1 1.3 3.7 3.3 2.8 3.6 3.7 2.8 1.3 1.4 1.6 3.2 6.5 6.5 6.0 6.5 6.5 6.5 6.2 6.4 6.5 6.5 6.6 6.8 5.7 5.1 5.8 5.3 5.9 6.2 6.5
4.3 4.4 4.0 3.3 3.4 2.9 3.9 4.3 4.6 5.0 4.9 3.8 3.3 3.0 3.3 4.2 4.6 3.6 2.2 2.1 1.7 3.2 3.1 1.4 2.1 2.5 1.7 2.7 3.6 2.9 3.1 2.6 2.4 3.9 5.0 6.5 4.7 6.1 6.4 6.4 6.5 5.9 6.5 6.5 6.5 6.6 6.6 6.4 5.8 5.8 6.5 6.6 7.2 6.6
4.6 4.5 4.3 3.8 3.3 3.3 3.3 3.7 3.8 3.9 3.9 3.2 3.3 3.1 3.0 4.0 5.2 3.3 3.5 2.3 2.5 2.3 1.5 6.4 2.8 2.3 1.8 2.5 3.2 3.0 3.3 3.3 3.6 3.6 3.8 3.9 3.6 4.8 6.5 6.5 6.0 5.8 6.2 6.7 6.8 6.3 6.3 5.8 6.6 6.9 7.5 7.3 7.0 6.4
4.9 4.6 4.5 4.3 3.8 3.1 2.7 3.2 3.4 3.4 3.3 3.3 3.2 3.1 3.2 4.6 4.4 4.7 3.7 2.7 3.3 3.7 2.0 3.7 4.3 2.6 2.9 2.5 2.1 3.1 3.0 4.4 5.0 3.9 4.0 3.6 3.6 4.8 6.5 6.5 6.5 6.2 6.1 6.3 6.1 6.1 5.8 7.0 7.4 7.5 7.2 7.0 6.1 5.8
4.8 4.4 4.7 4.9 4.5 3.9 3.1 2.3 2.9 3.2 3.1 3.1 3.2 3.4 2.9 2.9 2.8 3.8 1.9 1.6 3.0 3.7 2.1 6.3 6.3 4.0 3.8 3.4 3.7 2.8 3.3 3.8 4.5 5.1 4.0 5.0 4.8 4.1 6.5 6.3 5.9 5.4 6.3 5.7 5.6 5.6 6.9 7.3 7.3 7.1 6.4 5.8 5.7 5.7
5.0 4.6 4.5 4.7 4.9 4.9 4.1 2.9 2.4 2.6 2.6 2.8 2.9 2.8 2.9 3.2 3.1 2.9 1.9 2.9 2.3 3.6 4.3 4.4 6.5 6.5 3.8 4.0 2.8 3.2 3.5 6.2 4.8 5.6 5.6 5.6 6.5 6.5 6.6 6.6 6.1 4.5 5.8 6.6 6.4 6.8 6.9 6.4 6.2 6.1 6.2 6.3 6.1 6.2
5.2 4.7 4.6 4.8 4.8 5.4 5.5 4.2 3.1 2.5 2.4 2.7 2.9 3.6 2.6 1.9 2.4 2.5 3.6 3.5 2.5 2.3 3.3 5.2 4.6 6.5 5.5 4.3 5.3 5.1 4.5 6.5 6.5 6.5 6.0 6.5 6.5 6.7 6.0 6.0 5.8 6.0 6.6 6.5 6.2 6.1 6.0 6.0 6.0 6.1 6.1 6.2 5.9 5.9
5.4 4.9 4.7 4.6 4.9 4.9 5.7 5.4 4.1 3.4 3.1 3.2 3.8 4.1 3.9 4.1 4.1 3.8 4.8 5.4 5.4 6.2 5.2 5.2 4.6 6.2 4.6 6.2 6.4 4.5 6.4 6.5 6.5 6.5 6.5 6.5 6.5 6.7 5.7 5.6 5.7 5.4 5.6 5.9 6.3 6.3 6.1 5.8 5.7 5.5 5.2 5.4 4.8 4.6
5.8 5.2 4.9 4.8 4.8 4.5 5.1 5.7 5.9 4.3 4.2 5.3 4.9 5.0 4.9 5.9 5.7 6.4 6.5 6.1 6.5 6.5 5.8 6.1 5.5 5.3 4.5 5.0 5.5 5.9 6.5 6.5 6.5 6.5 6.5 6.5 6.5 6.0 6.5 6.2 5.6 5.3 5.7 5.9 5.7 5.4 5.3 5.0 5.1 4.8 5.0 5.1 4.7 4.4
5.9 5.6 5.2 5.1 5.4 4.8 4.9 5.0 5.1 4.5 4.4 4.4 4.4 5.3 6.3 5.4 6.5 6.5 6.5 6.5 6.5 6.3 5.9 5.7 6.3 4.9 4.8 4.6 5.9 6.5 6.5 6.5 6.6 6.5 6.5 6.5 6.4 6.3 5.8 5.4 5.6 5.4 5.0 3.9 4.8 4.9 5.1 5.3 4.6 3.6 3.8 3.7 3.1 3.4
6.0 5.8 5.4 5.0 5.2 4.8 4.9 4.6 5.0 4.7 4.3 4.5 5.6 6.5 6.5 6.5 6.5 6.5 6.5 6.4 5.1 5.2 5.5 5.2 5.8 6.0 5.3 6.4 6.6 6.5 6.5 6.6 6.5 6.5 6.5 6.5 6.3 5.6 5.0 4.9 5.3 5.8 2.6 2.4 4.0 4.6 3.8 3.2 3.2 2.7 1.6 2.1 2.0 2.6
6.1 6.0 5.5 5.3 5.7 5.6 5.2 5.4 5.0 4.4 2.6 3.5 4.2 6.5 6.5 5.6 5.5 5.8 5.1 5.6 4.8 4.5 5.0 5.6 5.9 5.7 6.6 6.5 6.5 6.5 6.5 6.5 6.5 6.5 6.5 4.5 5.0 5.0 5.3 5.5 5.5 3.4 2.0 2.6 4.6 3.9 2.8 2.5 2.5 2.8 2.9 2.8 3.4 2.7
6.2 5.8 5.5 5.4 5.8 5.8 5.1 4.9 4.1 3.2 1.7 3.1 3.5 6.0 5.6 5.6 5.9 5.6 5.6 5.6 4.6 4.3 4.0 4.3 6.4 6.5 6.5 6.5 6.5 6.5 6.5 6.5 6.5 6.1 2.8 3.4 4.7 5.1 5.1 4.3 3.9 3.8 3.5 4.0 4.3 3.8 3.6 2.5 2.3 3.8 2.8 2.5 2.5 3.2
6.6 4.8 5.8 5.9 5.5 5.1 5.4 4.3 2.8 1.9 3.6 2.1 3.9 3.7 3.3 3.6 4.5 4.1 4.9 5.1 4.6 5.2 6.4 5.6 6.5 6.5 6.6 6.5 6.5 6.5 6.5 6.5 3.1 2.6 2.1 3.0 5.0 5.2 4.2 3.5 2.2 2.9 3.8 3.9 4.1 3.7 3.7 3.3 1.9 1.7 2.5 4.2 4.8 4.7
5.0 5.3 5.7 5.7 5.7 4.4 3.9 3.1 2.7 3.2 4.0 3.2 3.8 4.1 3.8 3.3 2.1 2.0 2.8 3.2 4.5 4.3 3.8 6.2 4.9 6.5 6.5 6.5 6.5 6.2 3.0 1.9 1.1 2.2 3.7 4.0 4.9 4.4 4.4 4.3 4.6 4.6 4.5 4.2 3.1 2.9 2.7 2.0 3.0 3.8 3.8 4.8 4.8 5.9
5.7 6.0 5.8 5.7 5.7 3.6 3.9 3.8 3.1 3.7 3.1 2.1 2.1 3.1 2.6 2.9 2.4 1.9 2.5 2.9 3.7 3.3 2.8 3.4 6.5 6.5 6.5 4.9 3.0 0.8 -0.2 0.3 3.6 4.8 4.4 4.6 3.9 3.9 3.9 4.1 4.0 4.2 4.2 3.8 3.9 4.1 3.8 3.3 3.7 3.9 4.2 5.5 5.9 6.3
5.2 4.3 4.7 4.7 5.6 2.3 2.9 2.3 2.2 3.2 3.8 3.9 2.4 2.9 2.4 2.4 2.6 2.8 3.5 4.4 5.6 5.8 6.0 6.4 6.3 3.9 2.5 1.6 1.2 2.3 2.5 2.6 2.9 3.7 4.4 3.6 3.9 3.9 4.1 4.6 4.8 4.6 4.3 3.6 2.6 0.7 3.2 4.1 4.8 6.0 6.8 6.3 6.5 6.4
4.4 4.4 3.9 4.2 2.3 2.6 2.9 1.9 2.5 2.6 3.2 3.4 2.4 2.6 2.1 3.5 4.0 4.2 5.1 5.6 5.7 6.0 6.4 3.8 2.4 2.3 1.7 2.0 2.3 2.7 3.1 3.0 3.7 3.7 4.6 4.9 4.6 4.1 4.5 4.3 4.0 3.2 2.8 2.9 2.2 3.1 2.1 4.4 5.0 5.9 6.1 6.5 6.1 6.2
5.1 4.4 2.9 3.2 3.2 2.2 3.0 2.0 2.9 1.9 2.4 1.9 1.8 1.6 -0.2 0.5 4.9 5.4 4.9 6.5 7.0 5.1 3.4 2.5 2.9 3.1 3.4 3.5 3.7 3.2 3.6 3.6 3.6 3.4 1.9 2.4 3.1 3.6 3.2 3.4 2.5 3.0 2.6 2.6 3.1 3.6 4.1 4.1 5.0 5.8 6.1 6.6 7.1 6.4
4.5 3.9 2.3 1.5 3.1 2.7 4.4 1.6 2.1 2.6 4.2 2.8 1.0 3.0 1.5 0.1 1.7 4.7 6.8 7.3 6.0 1.7 1.8 2.1 3.0 3.7 3.8 3.8 2.7 3.0 3.0 3.4 3.5 3.3 2.8 2.8 2.9 2.7 2.2 2.3 1.8 1.9 2.0 2.9 3.2 3.3 3.8 5.5 6.6 6.9 7.2 6.9 7.1 6.9
3.5 2.6 3.1 2.0 0.6 4.4 1.0 1.3 3.1 2.2 0.6 2.9 6.1 6.5 6.0 2.4 4.7 6.5 6.5 4.0 1.1 -0.3 0.8 2.9 2.7 2.6 2.0 1.7 2.0 3.1 3.6 2.9 3.1 2.4 2.0 1.8 2.4 3.0 2.7 2.3 1.8 1.1 2.1 3.5 3.0 3.4 4.4 5.4 5.4 7.0 7.6 6.9 6.9 6.6
3.9 5.5 2.4 4.9 2.9 4.2 7.2 6.4 6.3 6.6 6.5 6.6 6.5 6.5 3.3 2.5 6.5 6.5 6.5 3.7 -1.5 -1.1 -0.1 -0.0 0.1 1.6 2.1 1.4 0.8 2.1 1.1 2.4 3.3 3.7 3.5 1.4 2.7 2.0 3.0 2.7 1.5 1.9 2.8 3.3 3.8 3.8 4.7 6.5 7.1 7.6 7.4 7.1 6.9 6.7
6.5 6.0 3.5 1.6 3.0 5.5 5.9 6.5 6.5 6.5 6.5 6.5 6.2 2.0 -0.8 4.5 6.5 6.5 5.7 0.4 -1.6 -1.1 -1.3 -0.5 0.7 1.0 1.5 1.8 2.8 2.9 3.4 1.8 1.8 2.3 3.4 2.7 2.6 3.3 3.9 3.9 3.3 4.1 3.3 3.4 4.6 5.9 5.7 5.9 7.2 7.0 7.2 7.2 6.7 6.6
6.5 6.6 5.9 3.5 3.0 2.3 3.4 2.4 3.1 3.4 6.5 6.5 6.2 5.2 6.5 6.5 6.5 4.9 0.6 -0.6 0.9 0.3 0.7 1.2 2.1 2.8 4.2 4.2 2.0 1.6 1.5 0.7 2.0 3.3 2.5 2.1 2.7 3.2 4.1 5.5 5.3 5.1 4.6 5.1 5.3 5.6 6.6 6.9 7.0 7.3 6.3 6.2 5.9 5.6
1.5 1.6 6.3 6.0 4.2 1.3 3.4 3.2 6.8 6.5 6.3 2.4 2.4 6.5 6.5 6.5 6.5 1.2 0.7 -0.5 -0.9 -0.3 0.7 0.2 -0.0 0.7 1.5 2.1 1.8 1.8 2.1 1.0 3.2 3.2 3.2 3.7 2.5 2.1 2.5 2.9 3.3 3.5 4.0 4.2 6.0 6.6 6.7 7.0 5.9 5.3 5.7 5.7 5.7 5.3
4.0 0.6 1.7 6.5 5.6 4.9 0.9 3.7 3.5 1.1 1.3 1.2 5.1 6.5 2.7 1.1 -1.6 -1.8 -1.5 -2.0 -1.4 1.1 1.9 2.2 2.8 1.3 2.4 2.3 2.7 2.8 2.9 3.9 5.2 5.6 5.6 5.3 5.9 4.0 1.5 2.2 2.9 3.5 4.0 4.6 5.7 6.2 5.8 5.2 4.5 4.2 4.5 4.2 3.6 3.2
5.2 2.7 0.8 2.3 4.7 6.5 1.2 0.9 -0.3 -3.6 -2.3 -0.5 -0.1 1.0 1.1 -2.2 -1.4 -1.7 -0.7 -0.5 -0.3 0.2 1.6 2.3 3.1 3.5 3.6 2.7 2.5 2.7 2.2 2.3 2.0 3.3 5.1 4.6 3.0 1.3 1.1 1.2 1.6 1.9 1.9 3.1 3.8 4.2 2.2 1.7 1.7 1.9 2.0 2.1 1.5 1.1
-0.5 3.4 1.7 0.3 1.1 -0.8 -2.9 -7.8 -8.5 -7.2 -6.5 -3.4 -5.9 0.5 0.9 -1.2 0.1 0.3 1.1 1.4 1.9 2.0 1.7 1.0 1.2 2.1 2.7 2.7 3.1 3.7 4.8 3.1 2.7 2.5 2.3 1.9 1.5 1.1 0.5 0.2 -0.2 -0.8 -0.6 0.6 2.5 1.2 1.0 0.2 -0.3 0.1 0.5 0.3 -0.4 -0.1
3.3 2.9 0.3 6.3 1.1 -4.0 -5.8 -1.9 -4.3 -3.8 -6.7 -4.5 -2.6 -6.1 -4.1 0.3 1.2 3.0 3.6 2.5 2.3 1.9 2.5 2.8 2.5 3.3 4.3 5.0 4.2 3.7 3.4 3.0 2.0 1.9 1.9 1.4 1.0 0.0 -1.0 -2.1 -3.2 -2.7 -1.4 -1.2 -1.1 -1.0 -1.2 -1.1 -0.8 -0.8 -0.7 -0.8 -0.8 -0.7
1.3 2.7 2.4 -1.0 -0.5 0.1 -3.3 -3.0 -3.5 -1.4 -3.6 -4.3 -4.5 0.1 -3.0 0.6 3.5 4.2 2.8 3.8 3.8 3.7 2.6 2.8 3.2 4.8 4.5 3.5 2.8 2.6 2.3 1.9 1.7 0.9 0.2 0.2 -1.2 -2.0 -2.4 -3.3 -3.6 -3.2 -2.2 -2.0 -2.1 -1.8 -1.6 -1.5 -1.6 -1.7 -1.9 -1.9 -1.7 -1.6
Wind_Speed
11 5 10 16 19 19 18 16 13 9 6 4 2 6 10 13 14 3 1 6 3 3 2 3 4 4 3 2 4 4 3 2 2 3 3 3 2 3 2 2 3 3 3 4 3 4 7 2 2 2 2 7 9 10
9 9 2 14 18 19 19 17 14 12 9 6 3 3 6 10 11 3 3 3 3 4 3 1 1 1 1 6 5 0 3 4 4 4 1 3 3 2 4 3 2 4 6 3 8 6 2 3 8 6 4 3 4 2
12 8 3 5 17 20 21 20 17 14 11 8 6 3 3 6 12 6 3 1 3 3 3 2 1 2 1 2 3 4 2 3 3 1 4 2 3 4 4 6 2 3 4 4 1 7 9 10 9 2 3 2 2 3
13 13 8 3 9 19 22 22 19 16 13 10 8 6 4 3 8 5 3 1 4 3 3 3 3 1 1 2 2 3 6 5 5 2 3 3 2 4 4 3 5 5 3 4 6 15 13 7 1 2 5 4 4 5
12 14 14 10 2 13 21 23 22 20 16 12 8 7 6 5 6 9 4 1 2 4 4 3 4 2 4 2 4 6 6 5 2 2 2 3 2 2 1 1 3 4 7 4 7 9 7 4 4 5 2 2 4 6
9 10 11 12 11 3 16 23 24 22 18 15 14 11 10 9 5 3 3 2 1 2 4 1 2 4 5 5 5 4 4 3 3 4 3 3 3 3 2 3 4 10 10 10 8 4 3 4 5 1 2 4 6 8
7 7 8 9 12 11 7 21 25 24 22 19 18 16 14 14 3 2 3 1 5 2 3 2 3 3 2 3 2 2 2 1 2 2 3 2 3 4 2 3 1 4 5 5 3 5 6 3 3 2 4 6 7 8
5 5 6 7 9 9 8 8 21 25 25 24 22 17 13 11 10 1 1 2 1 4 3 2 3 2 1 1 1 1 1 1 2 0 1 2 1 1 3 0 6 6 4 9 11 13 11 5 4 5 5 6 9 9
3 3 5 7 7 7 7 5 11 20 25 25 22 20 4 1 2 2 9 11 8 2 4 3 5 3 1 2 2 2 1 2 1 1 1 1 1 4 2 3 4 6 3 9 8 7 3 2 6 8 9 11 10 11
4 3 4 5 7 6 5 5 5 15 24 30 5 2 2 2 9 9 2 2 3 2 2 2 1 2 1 1 1 1 2 1 1 1 2 1 2 3 2 2 3 5 9 5 3 4 4 7 9 9 10 10 10 11
5 3 2 1 5 5 3 7 18 17 10 2 2 2 1 3 2 3 2 2 1 1 1 1 2 3 2 2 2 1 1 1 1 0 2 2 2 4 4 3 2 4 4 3 2 2 4 6 9 10 10 9 9 10
6 5 3 3 4 7 10 14 6 3 1 4 5 4 2 1 3 3 2 2 1 2 1 2 1 2 1 1 2 1 2 0 3 0 1 2 1 3 4 3 2 2 2 3 3 5 7 7 7 8 9 10 10 11
8 6 4 6 6 6 9 8 6 19 9 2 3 3 2 2 3 3 4 2 2 3 3 2 2 2 2 2 3 2 3 3 1 1 3 2 3 4 3 2 1 1 3 5 7 7 8 9 10 5 10 10 9 11
13 9 6 6 6 6 9 16 10 4 3 3 3 4 2 2 1 2 2 3 1 2 4 2 2 2 1 2 1 3 1 1 2 2 4 2 4 4 3 2 1 5 6 6 7 7 7 7 9 9 7 8 8 11
16 14 10 10 12 11 10 7 6 4 2 3 3 3 2 1 2 2 2 3 1 3 3 3 3 2 2 2 1 2 2 3 4 4 2 3 3 2 3 3 5 6 5 6 5 6 8 8 8 11 9 7 9 10
18 13 4 15 11 7 4 3 4 2 3 3 3 3 1 3 1 1 1 2 2 2 2 2 3 2 1 2 3 4 4 5 3 2 2 2 3 3 4 6 6 6 6 7 7 7 8 7 7 10 11 9 9 8
15 2 18 18 13 11 11 3 3 5 3 3 2 2 3 2 3 2 2 2 3 2 2 2 3 3 3 1 3 4 5 3 3 3 2 3 4 5 6 6 6 6 7 7 8 8 8 7 6 7 10 12 10 9
1 8 25 22 11 6 3 3 3 3 4 1 2 1 2 1 2 1 1 1 2 2 2 2 4 2 4 4 3 3 4 2 3 2 2 4 5 7 6 8 8 7 8 8 7 7 5 6 8 8 11 11 10 13
8 18 24 16 7 4 3 2 2 3 1 1 2 1 2 1 2 2 1 1 1 2 4 2 2 3 3 3 4 2 2 3 3 3 3 6 7 8 8 7 8 8 8 7 6 5 5 6 7 8 8 7 8 8
26 21 19 12 5 3 4 2 2 3 2 1 2 2 2 2 1 1 1 1 2 1 1 3 4 3 4 3 4 3 3 3 3 4 6 4 5 7 7 7 6 7 6 7 5 4 6 6 5 6 7 7 8 8
15 5 15 6 3 4 3 1 3 1 2 2 1 1 2 1 1 1 2 1 1 2 3 3 4 4 4 2 3 3 4 3 5 4 5 7 4 5 6 6 7 4 4 5 5 6 5 6 7 7 7 7 7 7
3 9 3 4 3 3 4 3 3 1 2 1 2 1 2 2 2 1 1 2 3 3 4 3 3 3 4 4 5 5 6 5 5 5 7 7 6 5 5 5 3 4 4 5 5 6 6 6 5 7 8 8 7 7
9 4 3 3 4 5 1 2 4 3 3 1 2 2 2 1 2 1 2 4 3 4 3 3 4 4 4 5 4 5 5 6 5 5 5 5 6 6 6 7 5 6 5 5 4 5 5 8 7 8 8 8 8 7
8 4 4 3 4 1 2 2 1 2 2 3 2 1 2 2 1 2 3 3 3 1 2 4 2 2 2 3 3 4 3 3 4 4 4 4 5 7 6 6 4 5 5 4 4 5 5 6 8 7 8 10 10 10
6 4 5 3 1 4 3 3 2 2 1 1 2 3 2 0 1 2 3 3 2 2 2 2 2 3 3 3 3 4 3 4 4 5 5 4 4 5 6 5 4 5 3 3 5 4 5 5 6 8 9 9 10 12
5 0 4 4 0 4 4 4 5 4 2 2 4 1 2 2 1 5 3 3 3 3 3 3 3 2 3 5 4 3 3 2 2 3 5 3 3 5 6 6 4 2 1 2 3 5 6 7 8 11 10 12 12 14
4 3 2 1 3 4 3 2 2 3 4 5 3 2 3 2 5 4 3 3 2 2 3 2 3 4 6 5 3 3 4 3 5 5 4 5 4 3 4 5 4 2 1 3 3 5 8 8 8 8 8 9 9 9
3 3 6 4 1 1 4 2 4 5 4 3 4 3 6 8 5 2 1 4 5 6 5 3 3 3 4 4 4 5 5 3 4 3 3 2 2 2 4 3 3 6 4 3 5 5 6 6 7 7 7 7 8 7
1 1 4 4 1 2 4 5 5 3 4 4 5 3 4 3 2 5 4 7 6 6 7 8 7 7 4 5 3 4 4 4 6 8 8 3 2 1 5 4 5 5 5 5 7 6 6 6 6 5 5 4 5 5
2 2 3 2 5 5 4 5 3 2 2 3 2 2 1 3 3 2 5 6 7 7 6 6 6 6 6 6 6 5 4 5 5 4 3 2 3 3 4 5 5 6 5 5 5 6 6 4 4 4 5 5 6 6
1 2 2 1 4 3 3 2 2 0 1 2 1 4 3 4 2 3 7 6 5 6 7 8 7 6 6 7 6 5 3 6 7 7 5 3 3 4 5 4 4 4 4 4 4 4 3 3 4 4 6 7 8 7
1 2 3 2 4 3 4 2 1 1 3 3 3 2 3 3 3 3 5 6 7 8 10 8 7 8 8 6 7 6 7 5 7 7 8 5 5 6 5 5 4 4 4 4 4 3 4 5 5 6 6 7 7 8
1 0 0 2 4 5 3 3 4 5 3 2 2 1 2 3 3 1 3 5 5 6 7 8 7 6 5 6 7 5 6 5 9 11 11 9 7 6 4 4 4 4 5 5 5 4 6 7 6 7 7 7 7 7
Wind_Direction
29 45 207 208 205 205 207 202 197 199 194 185 76 30 31 29 31 78 101 15 103 98 264 182 149 125 98 99 140 179 82 8 66 91 147 193 193 212 178 219 187 233 186 218 172 227 278 196 250 205 305 325 293 305
13 20 12 214 210 205 207 206 201 200 205 198 166 66 34 26 24 81 78 8 13 83 158 315 6 71 135 176 133 23 162 159 167 97 164 127 199 183 182 226 202 264 197 195 192 227 251 226 265 299 337 281 341 7
37 7 354 225 215 208 207 204 201 198 201 202 189 153 65 39 34 76 115 13 61 75 8 66 128 346 65 166 169 123 273 153 163 130 150 149 212 139 180 228 206 265 170 217 247 241 266 278 292 75 92 85 119 166
53 39 27 6 215 210 207 207 203 201 196 198 194 173 149 69 42 63 77 89 78 99 107 276 334 291 16 174 129 101 127 82 90 96 124 152 179 183 210 239 205 226 150 225 252 287 282 267 144 107 108 123 225 261
36 43 33 27 323 218 209 206 204 200 197 191 177 170 161 138 91 84 86 105 127 127 177 255 294 1 16 340 144 114 120 122 137 114 126 215 178 151 204 13 219 178 226 215 261 279 303 14 77 100 171 223 293 288
23 38 29 30 26 272 214 202 199 194 190 179 171 171 163 158 140 67 17 354 8 105 94 25 303 13 355 30 92 125 147 123 150 150 198 227 228 167 167 229 227 228 246 258 276 360 74 80 116 176 358 327 315 323
16 25 33 27 36 26 224 203 192 187 183 180 178 176 178 172 138 146 184 220 171 97 86 352 315 319 353 38 44 46 17 134 154 178 198 199 200 157 186 258 193 335 336 334 13 142 101 37 80 23 341 322 312 299
11 16 36 23 37 26 28 209 191 181 177 174 175 178 175 132 115 155 42 138 112 91 86 145 262 10 348 84 91 346 95 24 27 322 34 194 39 132 239 211 343 326 6 64 67 69 83 76 20 332 304 296 309 307
302 348 9 12 10 27 26 45 187 182 175 168 150 131 118 93 132 176 117 92 56 126 173 142 153 219 93 75 46 41 41 92 20 225 247 120 181 216 0 332 2 350 93 117 85 82 62 350 303 319 328 320 295 295
260 283 326 351 358 16 29 46 122 157 143 125 98 100 83 263 123 125 14 74 24 339 54 131 12 145 138 118 61 79 31 133 215 271 312 215 237 113 64 101 116 109 108 123 54 9 346 335 327 313 304 303 289 286
233 232 274 332 22 11 106 84 114 102 84 63 104 87 152 124 90 43 55 113 156 121 53 57 136 129 355 115 135 42 169 109 236 255 245 224 227 156 149 149 116 79 80 62 16 333 327 304 304 315 317 310 300 295
217 206 186 176 83 64 139 127 99 54 55 111 105 98 70 46 74 131 130 102 202 152 114 124 119 96 74 63 106 84 150 164 245 331 243 247 203 154 155 127 100 84 71 345 318 312 306 305 309 310 308 309 307 299
245 210 182 196 160 96 127 112 94 117 106 77 72 97 162 13 105 180 144 160 145 160 154 153 97 93 72 53 76 126 167 210 71 205 238 227 163 145 138 143 165 273 315 317 319 317 314 311 312 294 301 297 292 298
229 208 189 174 139 129 152 139 121 120 67 67 111 111 68 130 189 157 135 132 145 114 121 100 81 88 53 89 109 142 117 145 197 235 232 193 178 164 188 206 288 302 302 298 299 294 290 289 292 294 274 275 282 291
195 185 171 152 134 122 129 145 135 65 76 93 96 116 159 140 70 94 124 111 66 117 116 106 78 84 59 93 41 102 148 238 217 232 217 195 192 204 242 258 278 277 284 292 289 290 286 286 288 296 298 293 295 289
173 155 175 145 148 153 131 89 45 83 58 75 74 95 122 77 116 116 96 110 142 114 87 66 109 104 147 130 152 192 176 224 243 212 213 192 204 216 247 264 273 278 282 285 286 279 279 278 281 293 301 296 287 279
165 174 159 139 127 94 41 60 47 45 102 59 67 84 108 91 150 153 136 136 131 108 147 122 130 192 96 125 222 189 206 215 201 207 212 213 213 253 266 275 275 275 281 279 281 279 278 285 289 291 297 304 303 305
202 157 143 140 122 63 37 35 69 57 66 93 140 175 99 107 128 33 89 79 98 114 129 160 121 132 196 199 238 231 225 246 228 217 223 239 246 259 264 273 280 273 276 277 267 278 282 301 310 306 305 299 305 314
166 150 146 144 112 101 87 32 39 99 117 123 97 62 79 86 61 46 60 93 35 115 117 73 111 206 226 213 220 233 232 221 222 236 229 235 248 259 266 267 266 272 271 269 279 284 290 280 274 290 295 300 294 298
109 102 108 85 69 81 72 7 37 93 116 155 80 103 84 68 72 59 77 152 129 141 173 206 216 212 196 214 198 206 208 209 210 273 280 240 242 253 253 258 265 269 277 285 271 265 288 288 274 288 306 285 293 300
81 55 49 66 53 58 88 99 45 111 127 86 58 89 83 63 82 102 155 71 202 207 239 224 217 236 204 226 215 210 239 208 228 221 266 289 260 230 251 257 266 263 263 280 282 282 258 275 291 308 304 290 290 295
92 94 90 42 81 36 74 12 115 93 72 123 66 48 84 103 176 204 167 187 234 236 217 211 227 235 250 229 236 209 233 232 234 242 250 264 277 270 257 254 250 263 258 260 265 273 283 277 286 300 292 280 289 296
105 66 58 45 76 45 295 26 68 12 106 263 31 54 331 359 223 228 229 230 249 232 218 232 244 233 241 267 262 259 232 232 247 244 251 249 255 261 262 263 242 242 256 262 241 259 267 279 291 292 291 296 299 290
61 56 61 64 70 63 47 30 65 78 61 60 86 297 272 207 201 196 246 242 247 256 211 230 206 282 307 271 248 256 244 211 240 263 248 249 268 274 250 252 237 227 230 266 267 267 271 281 283 285 310 308 302 299
80 10 84 33 67 94 66 130 133 172 132 171 120 276 265 38 125 234 236 262 263 264 271 327 280 214 220 258 271 257 238 207 229 259 275 211 258 286 284 258 242 241 236 263 270 280 290 289 297 297 296 295 294 296
79 328 123 176 238 113 162 138 185 177 138 167 229 317 20 91 82 251 228 232 229 220 223 211 209 227 244 217 234 252 259 207 203 247 281 232 237 251 279 289 291 296 227 226 275 295 296 290 297 304 304 305 305 309
116 165 139 95 113 113 84 47 72 117 165 197 204 126 96 158 242 254 275 222 227 232 236 227 203 219 245 257 248 257 262 228 218 257 297 284 277 258 250 286 293 296 315 295 293 286 295 301 299 309 314 320 323 320
164 152 152 172 99 68 131 113 156 202 219 184 108 176 184 196 229 238 305 12 353 329 323 320 295 276 285 288 287 296 299 271 242 250 256 244 49 52 35 4 345 334 316 280 268 287 290 303 309 307 309 321 327 331
159 163 105 149 136 209 207 181 208 224 178 155 168 217 232 211 34 2 355 341 328 354 354 348 350 344 329 337 325 8 348 326 283 261 249 240 227 55 358 353 354 352 344 330 318 319 328 320 314 307 314 320 324 339
214 158 99 145 161 217 238 176 214 232 211 179 182 331 338 77 44 349 12 15 17 7 348 343 339 349 345 346 333 337 22 12 16 1 354 29 16 339 359 2 351 342 333 330 330 334 353 7 347 7 8 27 19 21
113 124 77 136 226 245 239 301 321 32 34 230 299 188 224 131 121 36 29 5 1 0 359 352 345 344 338 335 335 336 9 22 20 26 32 39 24 15 1 344 340 334 336 335 351 360 5 25 25 32 43 46 37 40
132 184 146 213 270 295 10 36 350 324 330 1 301 21 36 76 58 22 12 357 11 10 354 344 343 339 346 18 29 30 23 14 10 6 12 15 9 1 353 348 346 354 18 32 35 41 54 61 59 58 59 55 48 44
54 45 66 321 331 338 324 53 22 332 351 325 309 73 86 105 124 287 334 10 357 357 342 332 327 338 11 26 25 15 14 8 6 15 14 14 11 2 356 359 2 18 42 52 51 57 63 72 68 63 57 53 48 42